Location: Unspecified
(40.7945°N, 0.0000°E)
Time: 12:28:19
(UTC+00:00)

TIGRISAT - Pass Details

Date: 29 August 2019
Orbit: 605 x 690 km, 97.7° (Epoch: 21 September)

Event Time Altitude Azimuth Distance (km) Brightness Sun altitude
Rises 22:17:35 0° 352° (N) 3,004 ? -34.6°
Reaches altitude 10° 22:20:54 10° 326° (NNW) 2,066 ? -34.9°
Maximum altitude 22:23:03 13° 298° (WNW) 1,829 ? -35.2°
Enters shadow 22:24:08 12° 282° (WNW) 1,881 ? -35.3°
